TimeMDT,TemperatureF,Dew PointF,Humidity,Sea Level PressureIn,VisibilityMPH,Wind Direction,Wind SpeedMPH,Gust SpeedMPH,PrecipitationIn,Events,Conditions,WindDirDegrees,DateUTC
12:15 AM,59.0,46.4,63,29.95,10.0,ENE,8.1,-,N/A,,Clear,60,2011-10-04 06:15:00
12:35 AM,59.0,46.4,63,29.95,10.0,ENE,6.9,-,N/A,,Clear,60,2011-10-04 06:35:00
12:55 AM,57.2,46.4,67,29.94,10.0,ENE,8.1,-,N/A,,Clear,60,2011-10-04 06:55:00
1:15 AM,57.2,46.4,67,29.94,10.0,NE,11.5,-,N/A,,Clear,50,2011-10-04 07:15:00
1:35 AM,57.2,46.4,67,29.93,10.0,ENE,8.1,-,N/A,,Clear,60,2011-10-04 07:35:00
1:55 AM,55.4,46.4,72,29.92,10.0,NE,8.1,-,N/A,,Clear,50,2011-10-04 07:55:00
2:15 AM,55.4,46.4,72,29.92,10.0,ENE,8.1,-,N/A,,Clear,60,2011-10-04 08:15:00
2:35 AM,55.4,46.4,72,29.92,10.0,ENE,6.9,-,N/A,,Clear,60,2011-10-04 08:35:00
2:55 AM,55.4,46.4,72,29.91,10.0,ENE,8.1,-,N/A,,Clear,60,2011-10-04 08:55:00
3:15 AM,55.4,46.4,72,29.90,10.0,ENE,10.4,-,N/A,,Clear,60,2011-10-04 09:15:00
3:35 AM,53.6,46.4,77,29.90,10.0,ENE,9.2,-,N/A,,Clear,60,2011-10-04 09:35:00
3:55 AM,53.6,46.4,77,29.88,10.0,NE,10.4,-,N/A,,Clear,40,2011-10-04 09:55:00
4:15 AM,53.6,46.4,77,29.88,10.0,NE,6.9,-,N/A,,Clear,50,2011-10-04 10:15:00
4:35 AM,53.6,46.4,77,29.87,10.0,NE,10.4,-,N/A,,Clear,40,2011-10-04 10:35:00
4:55 AM,53.6,46.4,77,29.87,10.0,NE,10.4,-,N/A,,Clear,40,2011-10-04 10:55:00
5:15 AM,53.6,46.4,77,29.87,10.0,ENE,6.9,-,N/A,,Clear,60,2011-10-04 11:15:00
5:35 AM,51.8,46.4,82,29.86,10.0,NE,6.9,-,N/A,,Clear,50,2011-10-04 11:35:00
5:55 AM,51.8,46.4,82,29.86,10.0,ENE,8.1,-,N/A,,Clear,60,2011-10-04 11:55:00
6:15 AM,51.8,46.4,82,29.85,10.0,NE,9.2,-,N/A,,Clear,50,2011-10-04 12:15:00
6:35 AM,51.8,46.4,82,29.86,10.0,ENE,8.1,-,N/A,,Clear,60,2011-10-04 12:35:00
6:55 AM,51.8,46.4,82,29.86,10.0,ENE,5.8,-,N/A,,Clear,60,2011-10-04 12:55:00
7:15 AM,51.8,46.4,82,29.86,10.0,ENE,4.6,-,N/A,,Clear,60,2011-10-04 13:15:00
7:35 AM,51.8,46.4,82,29.86,10.0,ENE,6.9,-,N/A,,Clear,70,2011-10-04 13:35:00
7:55 AM,53.6,46.4,77,29.86,9.0,NE,8.1,-,N/A,,Clear,50,2011-10-04 13:55:00
8:15 AM,55.4,46.4,72,29.85,10.0,ENE,4.6,-,N/A,,Clear,70,2011-10-04 14:15:00
8:35 AM,59.0,48.2,67,29.84,10.0,ENE,8.1,-,N/A,,Clear,60,2011-10-04 14:35:00
8:55 AM,60.8,46.4,59,29.83,10.0,ENE,8.1,-,N/A,,Clear,70,2011-10-04 14:55:00
9:15 AM,62.6,46.4,55,29.83,10.0,ENE,6.9,-,N/A,,Clear,70,2011-10-04 15:15:00
9:35 AM,64.4,46.4,52,29.82,10.0,ENE,5.8,-,N/A,,Clear,60,2011-10-04 15:35:00
9:55 AM,66.2,46.4,49,29.82,10.0,ENE,6.9,-,N/A,,Clear,70,2011-10-04 15:55:00
10:15 AM,69.8,46.4,43,29.80,10.0,ENE,8.1,-,N/A,,Clear,70,2011-10-04 16:15:00
10:35 AM,71.6,48.2,43,29.79,10.0,ENE,5.8,-,N/A,,Clear,60,2011-10-04 16:35:00
10:55 AM,73.4,48.2,41,29.79,10.0,East,5.8,-,N/A,,Clear,100,2011-10-04 16:55:00
11:15 AM,75.2,48.2,38,29.78,10.0,East,8.1,-,N/A,,Clear,90,2011-10-04 17:15:00
11:35 AM,78.8,48.2,34,29.77,10.0,ESE,8.1,-,N/A,,Clear,110,2011-10-04 17:35:00
11:55 AM,82.4,48.2,30,29.76,10.0,SSE,9.2,-,N/A,,Clear,150,2011-10-04 17:55:00
12:15 PM,84.2,48.2,29,29.75,10.0,SSE,11.5,-,N/A,,Clear,160,2011-10-04 18:15:00
12:35 PM,84.2,46.4,27,29.73,10.0,SSE,12.7,-,N/A,,Clear,150,2011-10-04 18:35:00
12:55 PM,87.8,46.4,24,29.72,10.0,SE,12.7,18.4,N/A,,Clear,140,2011-10-04 18:55:00
1:15 PM,87.8,46.4,24,29.70,10.0,SSE,17.3,25.3,N/A,,Clear,160,2011-10-04 19:15:00
1:35 PM,89.6,44.6,21,29.69,10.0,SSE,19.6,28.8,N/A,,Clear,160,2011-10-04 19:35:00
1:55 PM,89.6,44.6,21,29.68,10.0,SSE,17.3,23.0,N/A,,Clear,150,2011-10-04 19:55:00
2:15 PM,91.4,44.6,20,29.66,10.0,SSE,15.0,27.6,N/A,,Clear,150,2011-10-04 20:15:00
2:35 PM,91.4,44.6,20,29.66,10.0,South,19.6,27.6,N/A,,Clear,170,2011-10-04 20:35:00
2:55 PM,91.4,44.6,20,29.65,10.0,SSE,21.9,29.9,N/A,,Clear,160,2011-10-04 20:55:00
3:15 PM,91.4,42.8,18,29.65,10.0,SSE,23.0,31.1,N/A,,Clear,160,2011-10-04 21:15:00
3:35 PM,91.4,42.8,18,29.64,10.0,SSE,18.4,31.1,N/A,,Clear,160,2011-10-04 21:35:00
3:55 PM,91.4,44.6,20,29.63,10.0,SSE,23.0,27.6,N/A,,Clear,150,2011-10-04 21:55:00
4:15 PM,89.6,42.8,20,29.63,10.0,SSE,16.1,28.8,N/A,,Partly Cloudy,160,2011-10-04 22:15:00
4:35 PM,89.6,42.8,20,29.63,10.0,South,23.0,31.1,N/A,,Scattered Clouds,170,2011-10-04 22:35:00
4:55 PM,89.6,42.8,20,29.62,10.0,South,15.0,21.9,N/A,,Partly Cloudy,170,2011-10-04 22:55:00
5:15 PM,87.8,42.8,21,29.62,10.0,South,11.5,-,N/A,,Clear,170,2011-10-04 23:15:00
5:35 PM,87.8,42.8,21,29.62,10.0,SSE,10.4,-,N/A,,Clear,160,2011-10-04 23:35:00
5:55 PM,86.0,41.0,20,29.62,10.0,SSE,9.2,-,N/A,,Clear,150,2011-10-04 23:55:00
6:15 PM,84.2,42.8,23,29.62,10.0,SE,6.9,-,N/A,,Clear,140,2011-10-05 00:15:00
6:35 PM,82.4,42.8,25,29.62,10.0,SE,6.9,-,N/A,,Clear,130,2011-10-05 00:35:00
6:55 PM,82.4,41.0,23,29.62,10.0,SE,8.1,-,N/A,,Clear,140,2011-10-05 00:55:00
7:15 PM,80.6,39.2,23,29.62,10.0,SE,9.2,-,N/A,,Clear,140,2011-10-05 01:15:00
7:35 PM,80.6,39.2,23,29.62,10.0,SSE,8.1,-,N/A,,Clear,150,2011-10-05 01:35:00
7:55 PM,80.6,39.2,23,29.62,10.0,SE,8.1,-,N/A,,Clear,130,2011-10-05 01:55:00
8:15 PM,78.8,37.4,23,29.62,10.0,SE,10.4,-,N/A,,Clear,140,2011-10-05 02:15:00
8:35 PM,78.8,37.4,23,29.61,10.0,SE,6.9,-,N/A,,Clear,130,2011-10-05 02:35:00
8:55 PM,75.2,37.4,25,29.61,10.0,SSE,4.6,-,N/A,,Clear,160,2011-10-05 02:55:00
9:15 PM,75.2,37.4,25,29.61,10.0,SSE,6.9,-,N/A,,Clear,160,2011-10-05 03:15:00
9:35 PM,75.2,37.4,25,29.61,10.0,SSE,8.1,-,N/A,,Clear,150,2011-10-05 03:35:00
9:55 PM,75.2,37.4,25,29.60,10.0,SE,8.1,-,N/A,,Clear,140,2011-10-05 03:55:00
10:15 PM,73.4,37.4,27,29.60,10.0,East,6.9,-,N/A,,Clear,90,2011-10-05 04:15:00
10:35 PM,73.4,39.2,29,29.59,10.0,SE,5.8,-,N/A,,Clear,130,2011-10-05 04:35:00
10:55 PM,73.4,37.4,27,29.59,10.0,SSE,5.8,-,N/A,,Clear,150,2011-10-05 04:55:00
11:15 PM,71.6,37.4,29,29.59,10.0,South,9.2,-,N/A,,Clear,170,2011-10-05 05:15:00
11:35 PM,71.6,37.4,29,29.58,10.0,South,8.1,-,N/A,,Clear,190,2011-10-05 05:35:00
11:55 PM,66.2,37.4,35,29.58,10.0,SW,4.6,-,N/A,,Clear,230,2011-10-05 05:55:00